| time (UTC) | temp F | wind direction | speed MPH | gust MPH | rain 1hr in | rain 24hr in | rain mn in | humidity % | barometer mb |
| 20260502221605 | 51 | 63 | 2.0 | 3.0 | 0.01 | 0.02 | 0.02 | 92 | 1015.9 |
| 20260502221105 | 51 | 83 | 2.0 | 5.0 | 0.01 | 0.02 | 0.02 | 92 | 1015.9 |
| 20260502220605 | 51 | 71 | 2.0 | 5.0 | 0.00 | 0.02 | 0.02 | 92 | 1015.9 |
| 20260502220105 | 51 | 81 | 2.0 | 3.0 | 0.01 | 0.02 | 0.02 | 91 | 1015.9 |
| 20260502215605 | 51 | 87 | 0.0 | 3.0 | 0.01 | 0.02 | 0.02 | 91 | 1015.9 |
| 20260502215105 | 51 | 87 | 0.0 | 0.0 | 0.01 | 0.02 | 0.02 | 90 | 1015.9 |
| 20260502214105 | 51 | 89 | 0.0 | 0.0 | 0.01 | 0.02 | 0.02 | 90 | 1015.9 |
| 20260502213605 | 51 | 77 | 0.0 | 0.0 | 0.01 | 0.02 | 0.02 | 90 | 1015.9 |
| 20260502213105 | 51 | 79 | 0.0 | 0.0 | 0.01 | 0.02 | 0.02 | 90 | 1015.9 |
| 20260502212104 | 51 | 96 | 0.0 | 0.0 | 0.02 | 0.02 | 0.02 | 90 | 1015.9 |
| 20260502211105 | 51 | 96 | 0.0 | 0.0 | 0.02 | 0.02 | 0.02 | 89 | 1015.9 |
| 20260502210605 | 51 | 96 | 0.0 | 0.0 | 0.02 | 0.02 | 0.02 | 89 | 1015.9 |
| 20260502210105 | 51 | 96 | 0.0 | 2.0 | 0.01 | 0.01 | 0.01 | 89 | 1015.9 |
| 20260502205606 | 51 | 96 | 1.0 | 2.0 | 0.01 | 0.01 | 0.01 | 89 | 1015.9 |
| 20260502205105 | 51 | 96 | 0.0 | 2.0 | 0.01 | 0.01 | 0.01 | 89 | 1015.9 |
| 20260502204605 | 51 | 96 | 2.0 | 3.0 | 0.01 | 0.01 | 0.01 | 89 | 1015.9 |
| 20260502204104 | 51 | 96 | 2.0 | 3.0 | 0.01 | 0.01 | 0.01 | 89 | 1015.9 |
| 20260502203105 | 51 | 96 | 0.0 | 2.0 | 0.01 | 0.01 | 0.01 | 89 | 1015.9 |
| 20260502202605 | 51 | 96 | 1.0 | 2.0 | 0.01 | 0.01 | 0.01 | 89 | 1015.9 |
| 20260502202105 | 51 | 96 | 0.0 | 3.0 | 0.00 | 0.00 | 0.00 | 89 | 1015.9 |
| 20260502201605 | 51 | 96 | 1.0 | 3.0 | 0.00 | 0.00 | 0.00 | 89 | 1015.9 |
| 20260502201105 | 51 | 96 | 1.0 | 3.0 | 0.00 | 0.00 | 0.00 | 89 | 1015.9 |
| 20260502200605 | 51 | 96 | 1.0 | 3.0 | 0.00 | 0.00 | 0.00 | 89 | 1015.9 |
| 20260502200105 | 51 | 96 | 0.0 | 3.0 | 0.00 | 0.00 | 0.00 | 89 | 1015.9 |
| 20260502195605 | 51 | 96 | 1.0 | 3.0 | 0.00 | 0.00 | 0.00 | 88 | 1015.9 |
| 20260502195104 | 51 | 96 | 1.0 | 2.0 | 0.00 | 0.00 | 0.00 | 88 | 1015.9 |
| 20260502194605 | 51 | 96 | 2.0 | 5.0 | 0.00 | 0.00 | 0.00 | 87 | 1015.9 |
| 20260502193605 | 52 | 96 | 1.0 | 5.0 | 0.00 | 0.00 | 0.00 | 87 | 1015.9 |
| 20260502193105 | 52 | 96 | 3.0 | 6.0 | 0.00 | 0.00 | 0.00 | 86 | 1015.9 |
| 20260502192604 | 52 | 95 | 3.0 | 6.0 | 0.00 | 0.00 | 0.00 | 86 | 1015.9 |
| 20260502192105 | 52 | 95 | 4.0 | 7.0 | 0.00 | 0.00 | 0.00 | 85 | 1015.9 |
| 20260502191605 | 52 | 90 | 5.0 | 8.0 | 0.00 | 0.00 | 0.00 | 85 | 1015.9 |
| 20260502190105 | 52 | 82 | 5.0 | 10.0 | 0.00 | 0.00 | 0.00 | 83 | 1015.9 |
| 20260502185605 | 52 | 89 | 6.0 | 8.0 | 0.00 | 0.00 | 0.00 | 82 | 1015.9 |
| 20260502185105 | 52 | 84 | 6.0 | 9.0 | 0.00 | 0.00 | 0.00 | 82 | 1015.9 |
| 20260502184605 | 53 | 79 | 7.0 | 9.0 | 0.00 | 0.00 | 0.00 | 81 | 1015.9 |
| 20260502184105 | 53 | 80 | 5.0 | 8.0 | 0.00 | 0.00 | 0.00 | 81 | 1015.9 |
| 20260502183605 | 53 | 90 | 5.0 | 7.0 | 0.00 | 0.00 | 0.00 | 80 | 1015.9 |
| 20260502183104 | 53 | 82 | 6.0 | 8.0 | 0.00 | 0.00 | 0.00 | 80 | 1015.9 |
| 20260502182605 | 53 | 86 | 6.0 | 10.0 | 0.00 | 0.00 | 0.00 | 79 | 1015.9 |
| 20260502182105 | 53 | 86 | 6.0 | 8.0 | 0.00 | 0.00 | 0.00 | 80 | 1015.9 |
| 20260502181604 | 53 | 103 | 4.0 | 9.0 | 0.00 | 0.00 | 0.00 | 79 | 1015.9 |
| 20260502181105 | 53 | 100 | 6.0 | 10.0 | 0.00 | 0.00 | 0.00 | 79 | 1015.9 |
| 20260502180605 | 53 | 91 | 6.0 | 8.0 | 0.00 | 0.00 | 0.00 | 79 | 1015.9 |
| 20260502180105 | 53 | 84 | 5.0 | 8.0 | 0.00 | 0.00 | 0.00 | 80 | 1015.9 |
| 20260502170104 | 54 | 95 | 4.0 | 7.0 | 0.00 | 0.00 | 0.00 | 78 | 1015.9 |
| 20260502164105 | 55 | 99 | 5.0 | 10.0 | 0.00 | 0.00 | 0.00 | 77 | 1015.9 |
| 20260502163604 | 55 | 96 | 5.0 | 8.0 | 0.00 | 0.00 | 0.00 | 78 | 1015.9 |
| 20260502163104 | 55 | 86 | 6.0 | 10.0 | 0.00 | 0.00 | 0.00 | 77 | 1015.9 |
| 20260502162605 | 55 | 87 | 5.0 | 9.0 | 0.00 | 0.00 | 0.00 | 78 | 1015.9 |
| 20260502162105 | 55 | 73 | 6.0 | 10.0 | 0.00 | 0.00 | 0.00 | 78 | 1015.9 |
| 20260502161605 | 55 | 83 | 6.0 | 10.0 | 0.00 | 0.00 | 0.00 | 78 | 1015.9 |
| 20260502161104 | 55 | 83 | 7.0 | 10.0 | 0.00 | 0.00 | 0.00 | 78 | 1015.9 |
| 20260502160604 | 55 | 71 | 6.0 | 10.0 | 0.00 | 0.00 | 0.00 | 78 | 1015.9 |
| 20260502160105 | 55 | 64 | 4.0 | 8.0 | 0.00 | 0.00 | 0.00 | 78 | 1015.9 |
| 20260502152104 | 55 | 42 | 2.0 | 6.0 | 0.00 | 0.00 | 0.00 | 80 | 1015.9 |
| 20260502151105 | 55 | 49 | 5.0 | 9.0 | 0.00 | 0.00 | 0.00 | 79 | 1015.9 |
| 20260502150605 | 55 | 45 | 5.0 | 8.0 | 0.00 | 0.00 | 0.00 | 79 | 1015.9 |
| 20260502150105 | 55 | 56 | 6.0 | 9.0 | 0.00 | 0.00 | 0.00 | 79 | 1015.9 |
| 20260502140105 | 56 | 59 | 5.0 | 12.0 | 0.00 | 0.00 | 0.00 | 78 | 1015.9 |
| 20260502130605 | 55 | 58 | 5.0 | 8.0 | 0.00 | 0.00 | 0.00 | 79 | 1015.9 |
| 20260502123605 | 55 | 46 | 6.0 | 10.0 | 0.00 | 0.00 | 0.00 | 78 | 1015.9 |
| 20260502123105 | 55 | 36 | 6.0 | 9.0 | 0.00 | 0.00 | 0.00 | 79 | 1015.9 |
| 20260502122605 | 55 | 40 | 6.0 | 9.0 | 0.00 | 0.00 | 0.00 | 78 | 1015.9 |
| 20260502122105 | 55 | 49 | 5.0 | 9.0 | 0.00 | 0.00 | 0.00 | 78 | 1015.9 |
| 20260502121605 | 55 | 49 | 5.0 | 12.0 | 0.00 | 0.01 | 0.00 | 78 | 1015.9 |
| 20260502121105 | 55 | 44 | 5.0 | 10.0 | 0.00 | 0.01 | 0.00 | 79 | 1015.9 |
| 20260502120605 | 55 | 28 | 6.0 | 8.0 | 0.00 | 0.02 | 0.00 | 80 | 1015.9 |
| 20260502120105 | 54 | 47 | 6.0 | 7.0 | 0.00 | 0.02 | 0.00 | 80 | 1015.9 |
| 20260502115605 | 54 | 64 | 5.0 | 8.0 | 0.00 | 0.02 | 0.00 | 81 | 1015.9 |
| 20260502114604 | 54 | 39 | 3.0 | 6.0 | 0.00 | 0.03 | 0.00 | 82 | 1015.9 |
| 20260502114105 | 54 | 50 | 4.0 | 6.0 | 0.00 | 0.04 | 0.00 | 82 | 1015.9 |
| 20260502113605 | 54 | 50 | 5.0 | 7.0 | 0.00 | 0.05 | 0.00 | 81 | 1015.9 |
| 20260502112605 | 54 | 68 | 3.0 | 7.0 | 0.00 | 0.06 | 0.00 | 80 | 1015.9 |
| 20260502112105 | 54 | 61 | 3.0 | 7.0 | 0.00 | 0.06 | 0.00 | 81 | 1015.9 |
| 20260502111605 | 54 | 57 | 3.0 | 8.0 | 0.00 | 0.07 | 0.00 | 81 | 1015.9 |
| 20260502111105 | 54 | 55 | 3.0 | 8.0 | 0.00 | 0.08 | 0.00 | 82 | 1015.9 |
| 20260502110105 | 53 | 65 | 4.0 | 10.0 | 0.00 | 0.09 | 0.00 | 82 | 1015.9 |
| 20260502105604 | 54 | 81 | 6.0 | 9.0 | 0.00 | 0.09 | 0.00 | 82 | 1015.9 |
| 20260502104605 | 54 | 63 | 3.0 | 8.0 | 0.00 | 0.09 | 0.00 | 82 | 1015.9 |
| 20260502104105 | 53 | 69 | 3.0 | 5.0 | 0.00 | 0.09 | 0.00 | 82 | 1015.9 |
| 20260502103605 | 53 | 66 | 2.0 | 5.0 | 0.00 | 0.09 | 0.00 | 82 | 1015.9 |
| 20260502103105 | 53 | 61 | 3.0 | 7.0 | 0.00 | 0.09 | 0.00 | 82 | 1015.9 |
| 20260502102605 | 53 | 39 | 3.0 | 5.0 | 0.00 | 0.09 | 0.00 | 82 | 1015.9 |
| 20260502102105 | 53 | 43 | 4.0 | 6.0 | 0.00 | 0.09 | 0.00 | 82 | 1015.9 |
| 20260502101605 | 53 | 75 | 3.0 | 5.0 | 0.00 | 0.09 | 0.00 | 83 | 1015.9 |
| 20260502101106 | 53 | 72 | 5.0 | 8.0 | 0.00 | 0.09 | 0.00 | 82 | 1015.9 |
| 20260502100605 | 53 | 59 | 3.0 | 6.0 | 0.00 | 0.09 | 0.00 | 82 | 1015.9 |
| 20260502090604 | 53 | 3 | 3.0 | 6.0 | 0.00 | 0.09 | 0.00 | 83 | 1015.9 |
| 20260502090105 | 53 | 25 | 3.0 | 5.0 | 0.00 | 0.09 | 0.00 | 83 | 1015.9 |
| 20260502071105 | 52 | 225 | 1.0 | 3.0 | 0.00 | 0.09 | 0.00 | 84 | 1015.9 |
| 20260502070605 | 52 | 228 | 1.0 | 2.0 | 0.00 | 0.09 | 0.00 | 84 | 1015.9 |
| 20260502070105 | 52 | 227 | 0.0 | 2.0 | 0.00 | 0.09 | 0.00 | 84 | 1015.9 |
| 20260502064604 | 53 | 231 | 0.0 | 0.0 | 0.00 | 0.09 | 0.00 | 83 | 1015.9 |
| 20260502064104 | 53 | 230 | 0.0 | 0.0 | 0.00 | 0.09 | 0.00 | 83 | 1015.9 |
| 20260502063604 | 53 | 230 | 0.0 | 0.0 | 0.00 | 0.09 | 0.00 | 84 | 1015.9 |
| 20260502063104 | 53 | 230 | 0.0 | 2.0 | 0.00 | 0.09 | 0.00 | 84 | 1015.9 |
| 20260502062604 | 53 | 230 | 1.0 | 3.0 | 0.00 | 0.09 | 0.00 | 85 | 1015.9 |
| 20260502061605 | 52 | 230 | 2.0 | 3.0 | 0.00 | 0.09 | 0.00 | 86 | 1015.9 |
| 20260502060605 | 51 | 238 | 2.0 | 3.0 | 0.00 | 0.09 | 0.00 | 86 | 1015.9 |
| 20260502060105 | 51 | 239 | 0.0 | 3.0 | 0.00 | 0.09 | 0.00 | 86 | 1015.9 |
| 20260502055605 | 51 | 239 | 2.0 | 5.0 | 0.00 | 0.09 | 0.00 | 86 | 1015.9 |
| 20260502055104 | 51 | 238 | 1.0 | 6.0 | 0.00 | 0.09 | 0.00 | 87 | 1015.9 |
| 20260502054605 | 51 | 154 | 1.0 | 3.0 | 0.00 | 0.09 | 0.00 | 87 | 1015.9 |
| 20260502053605 | 50 | 168 | 5.0 | 10.0 | 0.00 | 0.09 | 0.00 | 88 | 1015.9 |
| 20260502053105 | 50 | 193 | 5.0 | 10.0 | 0.00 | 0.09 | 0.00 | 89 | 1015.9 |
| 20260502052605 | 49 | 202 | 4.0 | 10.0 | 0.00 | 0.09 | 0.00 | 89 | 1015.9 |
| 20260502052105 | 49 | 221 | 6.0 | 10.0 | 0.00 | 0.09 | 0.00 | 89 | 1015.9 |
| 20260502051106 | 49 | 257 | 6.0 | 9.0 | 0.00 | 0.09 | 0.00 | 90 | 1015.9 |
| 20260502050104 | 49 | 285 | 6.0 | 10.0 | 0.00 | 0.09 | 0.00 | 90 | 1015.9 |
| 20260502045105 | 49 | 210 | 7.0 | 12.0 | 0.00 | 0.09 | 0.00 | 90 | 1015.9 |
| 20260502044605 | 49 | 230 | 6.0 | 9.0 | 0.00 | 0.09 | 0.00 | 90 | 1015.9 |
| 20260502044105 | 49 | 208 | 6.0 | 12.0 | 0.00 | 0.09 | 0.00 | 90 | 1015.9 |
| 20260502043605 | 49 | 266 | 7.0 | 9.0 | 0.00 | 0.09 | 0.00 | 90 | 1015.9 |
| 20260502043105 | 49 | 246 | 6.0 | 12.0 | 0.00 | 0.09 | 0.00 | 90 | 1015.9 |
| 20260502042604 | 49 | 228 | 5.0 | 9.0 | 0.00 | 0.09 | 0.00 | 90 | 1015.9 |
| 20260502042104 | 49 | 272 | 6.0 | 9.0 | 0.00 | 0.09 | 0.00 | 89 | 1015.9 |
| 20260502041605 | 49 | 258 | 4.0 | 8.0 | 0.00 | 0.09 | 0.00 | 89 | 1015.9 |
| 20260502041105 | 49 | 230 | 6.0 | 9.0 | 0.00 | 0.09 | 0.00 | 89 | 1015.9 |
| 20260502040605 | 49 | 253 | 7.0 | 10.0 | 0.00 | 0.09 | 0.00 | 89 | 1015.9 |
| 20260502040105 | 49 | 216 | 6.0 | 12.0 | 0.00 | 0.09 | 0.00 | 89 | 1015.9 |
| 20260502035605 | 49 | 208 | 5.0 | 12.0 | 0.00 | 0.09 | 0.00 | 89 | 1015.9 |
| 20260502035105 | 49 | 185 | 7.0 | 13.0 | 0.00 | 0.09 | 0.00 | 89 | 1015.9 |
| 20260502034605 | 50 | 217 | 8.0 | 12.0 | 0.00 | 0.09 | 0.00 | 89 | 1015.9 |
| 20260502034105 | 49 | 198 | 10.0 | 15.0 | 0.00 | 0.09 | 0.00 | 89 | 1015.9 |
| 20260502033605 | 49 | 183 | 9.0 | 13.0 | 0.00 | 0.09 | 0.00 | 88 | 1015.9 |
| 20260502033105 | 49 | 200 | 10.0 | 14.0 | 0.00 | 0.09 | 0.00 | 88 | 1015.9 |
| 20260502032104 | 49 | 181 | 7.0 | 13.0 | 0.00 | 0.09 | 0.00 | 88 | 1015.9 |
| 20260502031604 | 49 | 204 | 9.0 | 14.0 | 0.00 | 0.09 | 0.00 | 88 | 1015.9 |
| 20260502031104 | 49 | 202 | 8.0 | 15.0 | 0.00 | 0.09 | 0.00 | 88 | 1015.9 |
| 20260502030605 | 50 | 182 | 9.0 | 18.0 | 0.00 | 0.09 | 0.00 | 88 | 1015.9 |
| 20260502030104 | 50 | 207 | 8.0 | 14.0 | 0.00 | 0.09 | 0.00 | 88 | 1015.9 |
| 20260502025604 | 50 | 181 | 10.0 | 16.0 | 0.00 | 0.09 | 0.00 | 88 | 1015.9 |
| 20260502025105 | 50 | 185 | 11.0 | 18.0 | 0.00 | 0.09 | 0.00 | 88 | 1015.9 |
| 20260502024604 | 50 | 197 | 13.0 | 17.0 | 0.00 | 0.09 | 0.00 | 88 | 1015.9 |
| 20260502024105 | 50 | 200 | 12.0 | 16.0 | 0.00 | 0.09 | 0.00 | 88 | 1015.9 |
| 20260502023104 | 50 | 216 | 12.0 | 18.0 | 0.00 | 0.09 | 0.00 | 88 | 1015.9 |
| 20260502022604 | 50 | 195 | 13.0 | 17.0 | 0.00 | 0.09 | 0.00 | 88 | 1015.9 |
| 20260502022104 | 50 | 216 | 10.0 | 18.0 | 0.00 | 0.09 | 0.00 | 88 | 1015.9 |
| 20260502021105 | 50 | 191 | 13.0 | 18.0 | 0.00 | 0.09 | 0.00 | 87 | 1015.9 |
| 20260502020604 | 50 | 189 | 11.0 | 18.0 | 0.00 | 0.09 | 0.00 | 87 | 1015.9 |
| 20260502020104 | 50 | 203 | 10.0 | 18.0 | 0.00 | 0.09 | 0.00 | 87 | 1015.9 |
| 20260502015604 | 50 | 188 | 11.0 | 18.0 | 0.00 | 0.09 | 0.00 | 88 | 1015.9 |
| 20260502015105 | 50 | 196 | 10.0 | 16.0 | 0.00 | 0.09 | 0.00 | 87 | 1015.9 |
| 20260502014605 | 50 | 217 | 11.0 | 18.0 | 0.00 | 0.09 | 0.00 | 87 | 1015.9 |
| 20260502014104 | 50 | 202 | 13.0 | 18.0 | 0.00 | 0.09 | 0.00 | 88 | 1015.9 |
| 20260502013604 | 50 | 184 | 13.0 | 20.0 | 0.00 | 0.09 | 0.00 | 88 | 1015.9 |
| 20260502013104 | 50 | 321 | 13.0 | 16.0 | 0.00 | 0.09 | 0.00 | 88 | 1015.9 |
| 20260502012105 | 50 | 194 | 11.0 | 20.0 | 0.00 | 0.09 | 0.00 | 87 | 1015.9 |
| 20260502011605 | 50 | 195 | 11.0 | 17.0 | 0.00 | 0.09 | 0.00 | 87 | 1015.9 |
| 20260502011106 | 50 | 187 | 10.0 | 16.0 | 0.00 | 0.09 | 0.00 | 87 | 1015.9 |
| 20260502010605 | 50 | 209 | 12.0 | 20.0 | 0.00 | 0.09 | 0.00 | 88 | 1015.9 |
| 20260502010105 | 50 | 195 | 12.0 | 17.0 | 0.00 | 0.09 | 0.00 | 88 | 1015.9 |
| 20260502005604 | 50 | 196 | 12.0 | 17.0 | 0.00 | 0.09 | 0.00 | 88 | 1015.9 |
| 20260502005105 | 50 | 184 | 10.0 | 17.0 | 0.00 | 0.09 | 0.00 | 88 | 1015.9 |
| 20260502004605 | 50 | 194 | 10.0 | 15.0 | 0.00 | 0.09 | 0.00 | 88 | 1015.9 |
| 20260502004105 | 50 | 238 | 10.0 | 15.0 | 0.00 | 0.09 | 0.00 | 89 | 1015.9 |
| 20260502003604 | 50 | 196 | 12.0 | 17.0 | 0.00 | 0.09 | 0.00 | 89 | 1015.9 |
| 20260502003104 | 50 | 183 | 8.0 | 16.0 | 0.00 | 0.09 | 0.00 | 89 | 1015.9 |
| 20260502002604 | 50 | 195 | 9.0 | 15.0 | 0.00 | 0.09 | 0.00 | 89 | 1015.9 |
| 20260502002105 | 50 | 208 | 7.0 | 13.0 | 0.00 | 0.09 | 0.00 | 89 | 1015.9 |
| 20260502001605 | 50 | 182 | 8.0 | 14.0 | 0.00 | 0.09 | 0.00 | 89 | 1015.9 |
| 20260502001104 | 50 | 174 | 7.0 | 12.0 | 0.00 | 0.09 | 0.00 | 88 | 1015.9 |
| 20260502000105 | 50 | 139 | 4.0 | 9.0 | 0.00 | 0.09 | 0.00 | 88 | 1015.9 |
| 20260501235605 | 50 | 158 | 6.0 | 12.0 | 0.00 | 0.09 | 0.00 | 88 | 1015.9 |
| 20260501235105 | 50 | 157 | 6.0 | 13.0 | 0.00 | 0.09 | 0.00 | 88 | 1015.9 |
| 20260501234605 | 50 | 150 | 9.0 | 14.0 | 0.00 | 0.09 | 0.00 | 88 | 1015.9 |
| 20260501234105 | 50 | 202 | 10.0 | 17.0 | 0.00 | 0.09 | 0.00 | 88 | 1015.9 |
| 20260501233604 | 50 | 190 | 10.0 | 18.0 | 0.00 | 0.09 | 0.00 | 88 | 1015.9 |
| 20260501232605 | 50 | 350 | 13.0 | 18.0 | 0.00 | 0.09 | 0.00 | 88 | 1015.9 |
| 20260501232105 | 50 | 180 | 12.0 | 20.0 | 0.00 | 0.09 | 0.00 | 88 | 1015.9 |
| 20260501231605 | 50 | 212 | 12.0 | 18.0 | 0.00 | 0.09 | 0.00 | 88 | 1015.9 |
| 20260501230605 | 50 | 186 | 12.0 | 18.0 | 0.00 | 0.09 | 0.00 | 88 | 1015.9 |
| 20260501230105 | 50 | 24 | 10.0 | 18.0 | 0.00 | 0.09 | 0.00 | 88 | 1015.9 |
| 20260501224605 | 50 | 195 | 8.0 | 13.0 | 0.00 | 0.09 | 0.09 | 88 | 1015.9 |
| 20260501224105 | 50 | 194 | 7.0 | 12.0 | 0.00 | 0.09 | 0.09 | 88 | 1015.9 |
| 20260501223605 | 50 | 195 | 9.0 | 15.0 | 0.00 | 0.09 | 0.09 | 88 | 1015.9 |
| 20260501223104 | 49 | 186 | 7.0 | 14.0 | 0.00 | 0.09 | 0.09 | 88 | 1015.9 |
| 20260501222605 | 49 | 176 | 7.0 | 12.0 | 0.00 | 0.09 | 0.09 | 87 | 1015.9 |
| 20260501222105 | 50 | 228 | 7.0 | 10.0 | 0.00 | 0.09 | 0.09 | 87 | 1015.9 |